Fremont, NE

10:46 AM CDT on October 19, 2017 (GMT -0500)
Fremont Municipal

Weather History for KFET - January, 2013

Change the Weather History Date:

Tuesday, January 22, 2013

  Actual Average Record
Temperature  
Mean Temperature 15 °F -  
Max Temperature 20 °F 37 °F 56 °F (1981)
Min Temperature 10 °F 16 °F -12 °F (1966)
Degree Days  
Heating Degree Days 50    
Moisture  
Dew Point 10 °F    
Average Humidity 82    
Maximum Humidity 90    
Minimum Humidity 65    
Precipitation  
Precipitation 0.00 in - - ()
Sea Level Pressure  
Sea Level Pressure 30.30 in    
Wind  
Wind Speed 3 mph (ESE)    
Max Wind Speed 8 mph    
Max Gust Speed -    
Visibility 7 miles    
Events Snow    
Averages and records for this station are not official NWS values.
T = Trace of Precipitation, MM = Missing Value Source: NWS Daily Summary

Daily Weather History Graph

Daily Weather History Graph

Search for Another Location

Airport or City:

Trip Planner

Search our weather history database for the weather conditions in past years. The results will help you decide how hot, cold, wet, or windy it might be!

Date:

Astronomy

Jan. 22, 2013 Rise Set
Actual Time 7:45 AM CST 5:30 PM CST
Civil Twilight 7:15 AM CST 6:00 PM CST
Nautical Twilight 6:42 AM CST 6:33 PM CST
Astronomical Twilight 6:09 AM CST 7:06 PM CST
Moon 1:53 PM CST (1/22) 4:08 AM CST (1/22)
Length of Visible Light 10h 44m
Length of Day
9h 44m
Waxing Gibbous, 83% of the Moon is Illuminated
Jan 22
Waxing Gibbous
Jan 26
Full
Feb 3
Last Quarter
Feb 10
New
Feb 17
First Quarter

Hourly Weather History & Observations

Time (CST) Temp. Windchill Dew Point Humidity Pressure Visibility Wind Dir Wind Speed Gust Speed Precip Events Conditions
12:15 AM 11.5 °F - 1.9 °F 66% 30.34 in 10.0 mi Calm Calm - N/A   Overcast
12:35 AM 11.8 °F - 2.1 °F 65% 30.35 in 10.0 mi Calm Calm - N/A   Overcast
1:55 AM 11.3 °F - 4.6 °F 75% 30.34 in 3.0 mi Calm Calm - N/A Snow Light Snow
2:15 AM 11.3 °F - 5.2 °F 76% 30.35 in 5.0 mi Calm Calm - N/A Snow Light Snow
2:55 AM 10.9 °F - 6.4 °F 82% 30.35 in 2.5 mi Calm Calm - N/A Snow Light Snow
3:15 AM 11.1 °F - 7.5 °F 85% 30.35 in 2.0 mi Calm Calm - N/A Snow Light Snow
3:35 AM 11.1 °F - 7.7 °F 86% 30.34 in 2.0 mi Calm Calm - N/A Snow Light Snow
3:55 AM 11.1 °F - 7.7 °F 86% 30.34 in 3.0 mi Calm Calm - N/A Snow Light Snow
4:15 AM 11.1 °F - 7.3 °F 85% 30.33 in 7.0 mi Calm Calm - N/A Snow Light Snow
4:35 AM 10.9 °F 4.7 °F 7.7 °F 87% 30.32 in 5.0 mi ENE 3.5 mph - N/A Snow Light Snow
4:55 AM 10.8 °F 4.5 °F 7.5 °F 87% 30.32 in 7.0 mi NE 3.5 mph - N/A Snow Light Snow
5:15 AM 10.8 °F - 6.8 °F 84% 30.31 in 7.0 mi Calm Calm - N/A Snow Light Snow
5:35 AM 10.9 °F - 7.0 °F 84% 30.32 in 4.0 mi Calm Calm - N/A Snow Light Snow
5:55 AM 10.8 °F - 7.2 °F 85% 30.32 in 3.0 mi Calm Calm - N/A Snow Light Snow
6:15 AM 10.4 °F - 7.2 °F 87% 30.33 in 3.0 mi Calm Calm - N/A Snow Light Snow
6:35 AM 10.6 °F - 7.3 °F 87% 30.33 in 4.0 mi Calm Calm - N/A Snow Light Snow
6:55 AM 10.8 °F - 7.7 °F 87% 30.34 in 2.5 mi Calm Calm - N/A Snow Light Snow
7:15 AM 10.8 °F - 7.7 °F 87% 30.34 in 2.0 mi Calm Calm - N/A Snow Light Snow
7:35 AM 10.8 °F - 8.1 °F 89% 30.35 in 3.0 mi Calm Calm - N/A Snow Light Snow
7:55 AM 10.8 °F 4.5 °F 8.1 °F 89% 30.35 in 3.0 mi ENE 3.5 mph - N/A Snow Light Snow
8:15 AM 10.8 °F 4.5 °F 7.7 °F 87% 30.35 in 3.0 mi East 3.5 mph - N/A Snow Light Snow
8:35 AM 11.1 °F 4.9 °F 8.2 °F 88% 30.36 in 1.5 mi East 3.5 mph - N/A Snow Light Snow
8:55 AM 11.3 °F 5.1 °F 8.1 °F 87% 30.36 in 1.5 mi East 3.5 mph - N/A Snow Light Snow
9:15 AM 11.3 °F 3.3 °F 7.9 °F 86% 30.36 in 2.0 mi East 4.6 mph - N/A Snow Light Snow
9:35 AM 11.7 °F 2.3 °F 8.4 °F 87% 30.36 in 1.8 mi ESE 5.8 mph - N/A Snow Light Snow
9:55 AM 12.0 °F 2.7 °F 8.6 °F 86% 30.35 in 1.5 mi SE 5.8 mph - N/A Snow Light Snow
10:15 AM 12.7 °F 2.4 °F 9.0 °F 85% 30.36 in 10.0 mi SE 6.9 mph - N/A Snow Light Snow
10:35 AM 13.1 °F 4.0 °F 9.5 °F 86% 30.36 in 5.0 mi SSE 5.8 mph - N/A Snow Light Snow
10:55 AM 13.6 °F 3.5 °F 10.0 °F 86% 30.36 in 4.0 mi SE 6.9 mph - N/A Snow Light Snow
11:15 AM 14.5 °F 5.7 °F 10.0 °F 82% 30.36 in 10.0 mi SSE 5.8 mph - N/A   Overcast
11:35 AM 15.1 °F 6.4 °F 10.8 °F 83% 30.36 in 4.0 mi SE 5.8 mph - N/A Snow Light Snow
11:55 AM 15.8 °F 7.2 °F 10.9 °F 81% 30.35 in 7.0 mi SSE 5.8 mph - N/A Snow Light Snow
12:15 PM 16.2 °F 6.5 °F 11.1 °F 81% 30.33 in 10.0 mi SSE 6.9 mph - N/A   Overcast
12:35 PM 16.7 °F 7.2 °F 11.3 °F 79% 30.33 in 10.0 mi SE 6.9 mph - N/A Snow Light Snow
12:55 PM 17.2 °F 7.8 °F 11.8 °F 79% 30.31 in 10.0 mi SSE 6.9 mph - N/A   Overcast
1:15 PM 18.1 °F 10.0 °F 12.4 °F 78% 30.30 in 10.0 mi SE 5.8 mph - N/A Snow Light Snow
1:35 PM 18.5 °F 8.4 °F 12.4 °F 77% 30.28 in 10.0 mi SE 8.1 mph - N/A   Overcast
1:55 PM 19.4 °F 10.4 °F 13.1 °F 76% 30.27 in 10.0 mi SE 6.9 mph - N/A   Scattered Clouds
2:15 PM 19.6 °F 9.7 °F 12.7 °F 75% 30.27 in 10.0 mi SE 8.1 mph - N/A   Clear
2:35 PM 19.9 °F 13.4 °F 12.4 °F 72% 30.27 in 10.0 mi SE 4.6 mph - N/A   Clear
2:55 PM 20.1 °F 10.3 °F 12.9 °F 74% 30.26 in 10.0 mi SE 8.1 mph - N/A   Clear
3:15 PM 20.1 °F 12.3 °F 13.3 °F 75% 30.25 in 10.0 mi ESE 5.8 mph - N/A   Clear
3:35 PM 19.8 °F 13.2 °F 12.9 °F 75% 30.26 in 10.0 mi East 4.6 mph - N/A   Clear
3:55 PM 19.9 °F 11.1 °F 13.1 °F 75% 30.26 in 10.0 mi East 6.9 mph - N/A   Clear
4:15 PM 19.8 °F 11.9 °F 13.3 °F 76% 30.25 in 10.0 mi ESE 5.8 mph - N/A   Clear
4:35 PM 19.8 °F 10.8 °F 13.1 °F 75% 30.25 in 10.0 mi SE 6.9 mph - N/A   Clear
4:55 PM 19.8 °F 10.8 °F 13.1 °F 75% 30.25 in 10.0 mi ESE 6.9 mph - N/A   Clear
5:15 PM 19.0 °F 12.3 °F 13.1 °F 78% 30.25 in 10.0 mi ESE 4.6 mph - N/A   Clear
5:35 PM 18.5 °F 11.7 °F 12.7 °F 78% 30.25 in 10.0 mi ESE 4.6 mph - N/A   Clear
5:55 PM 18.3 °F 10.2 °F 12.7 °F 79% 30.25 in 10.0 mi ESE 5.8 mph - N/A   Clear
6:15 PM 17.4 °F 10.4 °F 12.2 °F 80% 30.25 in 10.0 mi ESE 4.6 mph - N/A   Clear
6:35 PM 17.6 °F 10.7 °F 12.4 °F 80% 30.26 in 10.0 mi East 4.6 mph - N/A   Clear
6:55 PM 16.3 °F 9.2 °F 11.5 °F 81% 30.25 in 10.0 mi East 4.6 mph - N/A   Clear
7:15 PM 16.0 °F 8.8 °F 11.3 °F 82% 30.25 in 10.0 mi East 4.6 mph - N/A   Clear
7:35 PM 16.0 °F 10.4 °F 11.3 °F 82% 30.25 in 10.0 mi East 3.5 mph - N/A   Clear
7:55 PM 15.6 °F 10.0 °F 11.1 °F 82% 30.25 in 10.0 mi East 3.5 mph - N/A   Clear
8:15 PM 15.6 °F 10.0 °F 11.3 °F 83% 30.25 in 10.0 mi East 3.5 mph - N/A   Clear
8:35 PM 14.5 °F 5.7 °F 10.6 °F 84% 30.23 in 10.0 mi SE 5.8 mph - N/A   Clear
8:55 PM 14.9 °F 7.5 °F 11.1 °F 85% 30.23 in 10.0 mi ESE 4.6 mph - N/A   Clear
9:15 PM 14.7 °F 7.3 °F 10.9 °F 85% 30.23 in 10.0 mi ESE 4.6 mph - N/A   Clear
9:35 PM 14.5 °F 5.7 °F 11.1 °F 86% 30.23 in 10.0 mi ESE 5.8 mph - N/A   Clear
9:55 PM 14.0 °F 3.9 °F 11.1 °F 88% 30.23 in 10.0 mi SE 6.9 mph - N/A   Clear
10:15 PM 14.2 °F 5.3 °F 11.1 °F 88% 30.23 in 10.0 mi ESE 5.8 mph - N/A   Clear
10:35 PM 13.8 °F 4.9 °F 10.8 °F 88% 30.23 in 10.0 mi SE 5.8 mph - N/A   Clear
10:55 PM 13.1 °F 5.4 °F 10.4 °F 89% 30.23 in 10.0 mi SE 4.6 mph - N/A   Clear
11:15 PM 12.7 °F 5.0 °F 10.2 °F 90% 30.23 in 10.0 mi ESE 4.6 mph - N/A   Clear
11:35 PM 12.2 °F 2.9 °F 9.5 °F 89% 30.22 in 10.0 mi SE 5.8 mph - N/A   Clear
11:55 PM 12.6 °F 4.8 °F 10.0 °F 90% 30.22 in 10.0 mi SE 4.6 mph - N/A   Clear